EN

Hourly Weather Abakaliki

Today, 28 November, Saturday

Time Temperature Precipitation Wind Pressure Humidity
00:00 +28°C° 0.1 mm 3 mps 752 mmHg 81%
01:00 +27°C° 0 mm 2 mps 751 mmHg 86%
02:00 +27°C° 0 mm 2 mps 751 mmHg 88%
03:00 +26°C° 0 mm 2 mps 751 mmHg 89%
04:00 +26°C° 0 mm 2 mps 751 mmHg 91%
05:00 +26°C° 0 mm 1 mps 751 mmHg 91%
06:00 +26°C° 0 mm 1 mps 752 mmHg 91%
07:00 +26°C° 0 mm 1 mps 752 mmHg 88%
08:00 +28°C° 0 mm 1 mps 753 mmHg 80%
09:00 +30°C° 0 mm 1 mps 753 mmHg 72%
10:00 +32°C° 0 mm 1 mps 753 mmHg 63%
11:00 +33°C° 0 mm 1 mps 752 mmHg 57%
12:00 +34°C° 0 mm 1 mps 752 mmHg 51%
13:00 +35°C° 0 mm 1 mps 751 mmHg 45%
14:00 +35°C° 0 mm 1 mps 750 mmHg 43%
15:00 +35°C° 0 mm 1 mps 750 mmHg 41%
16:00 +36°C° 0 mm 2 mps 749 mmHg 39%
17:00 +35°C° 0 mm 2 mps 749 mmHg 44%
18:00 +32°C° 0 mm 2 mps 750 mmHg 48%
19:00 +31°C° 0 mm 2 mps 750 mmHg 52%
20:00 +30°C° 0 mm 2 mps 751 mmHg 56%
21:00 +29°C° 0 mm 2 mps 751 mmHg 59%
22:00 +29°C° 0 mm 3 mps 752 mmHg 62%
23:00 +28°C° 0 mm 3 mps 752 mmHg 69%

Tomorrow, 29 November, Sunday

Time Temperature Precipitation Wind Pressure Humidity
00:00 +27°C° 0 mm 3 mps 752 mmHg 75%
01:00 +27°C° 0 mm 3 mps 751 mmHg 81%
02:00 +26°C° 0 mm 2 mps 751 mmHg 84%
03:00 +26°C° 0 mm 2 mps 751 mmHg 87%
04:00 +25°C° 0 mm 2 mps 751 mmHg 90%
05:00 +25°C° 0 mm 1 mps 751 mmHg 90%
06:00 +25°C° 0 mm 1 mps 752 mmHg 90%
07:00 +25°C° 0 mm 1 mps 752 mmHg 90%
08:00 +27°C° 0 mm 1 mps 752 mmHg 82%
09:00 +29°C° 0 mm 1 mps 753 mmHg 73%
10:00 +31°C° 0 mm 1 mps 753 mmHg 65%
11:00 +32°C° 0 mm 1 mps 752 mmHg 56%
12:00 +34°C° 0 mm 1 mps 751 mmHg 48%
13:00 +36°C° 0 mm 1 mps 751 mmHg 39%
14:00 +36°C° 0 mm 1 mps 750 mmHg 37%
15:00 +36°C° 0 mm 1 mps 749 mmHg 36%
16:00 +36°C° 0 mm 1 mps 748 mmHg 34%
17:00 +34°C° 0 mm 1 mps 749 mmHg 38%
18:00 +33°C° 0 mm 1 mps 749 mmHg 41%
19:00 +31°C° 0 mm 1 mps 749 mmHg 45%
20:00 +31°C° 0 mm 1 mps 750 mmHg 47%
21:00 +30°C° 0 mm 1 mps 750 mmHg 49%
22:00 +29°C° 0 mm 1 mps 751 mmHg 51%
23:00 +28°C° 0 mm 2 mps 751 mmHg 58%

Day after tomorrow, 30 November, Monday

Time Temperature Precipitation Wind Pressure Humidity
00:00 +28°C° 0 mm 2 mps 751 mmHg 65%
01:00 +27°C° 0 mm 3 mps 751 mmHg 72%
02:00 +26°C° 0 mm 2 mps 751 mmHg 77%
03:00 +26°C° 0 mm 2 mps 751 mmHg 83%
04:00 +25°C° 0 mm 1 mps 751 mmHg 88%
05:00 +26°C° 0 mm 1 mps 751 mmHg 89%
06:00 +26°C° 0 mm 1 mps 752 mmHg 89%
07:00 +26°C° 0 mm 1 mps 752 mmHg 90%
08:00 +28°C° 0 mm 1 mps 753 mmHg 81%
09:00 +30°C° 0 mm 1 mps 753 mmHg 72%
10:00 +32°C° 0 mm 2 mps 753 mmHg 64%
11:00 +33°C° 0 mm 1 mps 752 mmHg 54%
12:00 +35°C° 0 mm 1 mps 752 mmHg 45%
13:00 +37°C° 0 mm 1 mps 751 mmHg 35%
14:00 +37°C° 0 mm 1 mps 750 mmHg 33%
15:00 +37°C° 0 mm 1 mps 750 mmHg 30%
16:00 +37°C° 0 mm 1 mps 749 mmHg 28%
17:00 +36°C° 0 mm 1 mps 749 mmHg 32%
18:00 +34°C° 0 mm 1 mps 750 mmHg 35%
19:00 +32°C° 0 mm 1 mps 750 mmHg 39%
20:00 +31°C° 0 mm 2 mps 751 mmHg 46%
21:00 +30°C° 0 mm 3 mps 751 mmHg 52%
22:00 +29°C° 0 mm 4 mps 752 mmHg 59%
23:00 +28°C° 0 mm 4 mps 751 mmHg 67%

1 December, Tuesday

Time Temperature Precipitation Wind Pressure Humidity
00:00 +28°C° 0 mm 3 mps 751 mmHg 75%
01:00 +27°C° 0 mm 3 mps 751 mmHg 83%
02:00 +27°C° 0 mm 3 mps 751 mmHg 86%
03:00 +26°C° 0 mm 2 mps 751 mmHg 88%
04:00 +26°C° 0 mm 1 mps 751 mmHg 91%
05:00 +26°C° 0 mm 1 mps 752 mmHg 91%
06:00 +26°C° 0 mm 1 mps 752 mmHg 91%
07:00 +26°C° 0 mm 1 mps 752 mmHg 91%
08:00 +28°C° 0 mm 1 mps 752 mmHg 82%
09:00 +29°C° 0 mm 2 mps 753 mmHg 73%
10:00 +31°C° 0 mm 2 mps 753 mmHg 64%
11:00 +34°C° 0 mm 2 mps 752 mmHg 56%
12:00 +34°C° 0 mm 1 mps 752 mmHg 49%
13:00 +36°C° 0 mm 1 mps 751 mmHg 41%
14:00 +36°C° 0 mm 1 mps 750 mmHg 38%
15:00 +35°C° 0 mm 0 mps 750 mmHg 35%
16:00 +35°C° 0 mm 0 mps 749 mmHg 32%
17:00 +35°C° 0 mm 1 mps 749 mmHg 37%
18:00 +34°C° 0 mm 1 mps 750 mmHg 41%
19:00 +32°C° 0 mm 2 mps 750 mmHg 45%
20:00 +31°C° 0 mm 2 mps 750 mmHg 51%
21:00 +30°C° 0 mm 3 mps 751 mmHg 56%
22:00 +29°C° 0 mm 3 mps 751 mmHg 61%
23:00 +28°C° 0 mm 3 mps 751 mmHg 68%

2 December, Wednesday

Time Temperature Precipitation Wind Pressure Humidity
00:00 +28°C° 0 mm 3 mps 751 mmHg 75%
01:00 +27°C° 0 mm 4 mps 751 mmHg 82%
02:00 +27°C° 0 mm 3 mps 751 mmHg 84%
03:00 +26°C° 0 mm 3 mps 751 mmHg 87%
04:00 +26°C° 0 mm 2 mps 751 mmHg 89%
05:00 +26°C° 0 mm 2 mps 751 mmHg 89%
06:00 +26°C° 0 mm 2 mps 752 mmHg 90%
07:00 +26°C° 0 mm 1 mps 752 mmHg 90%
08:00 +27°C° 0 mm 2 mps 752 mmHg 81%
09:00 +29°C° 0 mm 2 mps 753 mmHg 72%
10:00 +31°C° 0 mm 2 mps 753 mmHg 63%
11:00 +32°C° 0 mm 2 mps 752 mmHg 56%
12:00 +34°C° 0 mm 1 mps 751 mmHg 48%
13:00 +35°C° 0 mm 1 mps 750 mmHg 41%
14:00 +36°C° 0 mm 1 mps 750 mmHg 38%
15:00 +36°C° 0 mm 1 mps 749 mmHg 36%
16:00 +36°C° 0 mm 1 mps 748 mmHg 33%
17:00 +34°C° 0 mm 1 mps 748 mmHg 37%
18:00 +33°C° 0 mm 1 mps 749 mmHg 41%
19:00 +31°C° 0 mm 1 mps 749 mmHg 44%
20:00 +31°C° 0 mm 2 mps 750 mmHg 46%
21:00 +30°C° 0 mm 2 mps 750 mmHg 48%
22:00 +29°C° 0 mm 2 mps 751 mmHg 50%
23:00 +28°C° 0 mm 3 mps 751 mmHg 59%

3 December, Thursday

Time Temperature Precipitation Wind Pressure Humidity
00:00 +28°C° 0 mm 3 mps 751 mmHg 67%
01:00 +27°C° 0 mm 4 mps 751 mmHg 76%
02:00 +26°C° 0 mm 3 mps 751 mmHg 81%
03:00 +26°C° 0 mm 2 mps 751 mmHg 86%
04:00 +25°C° 0 mm 2 mps 751 mmHg 90%
05:00 +25°C° 0 mm 2 mps 751 mmHg 90%
06:00 +25°C° 0 mm 1 mps 752 mmHg 90%
07:00 +25°C° 0 mm 1 mps 753 mmHg 90%
08:00 +27°C° 0 mm 1 mps 753 mmHg 82%
09:00 +29°C° 0 mm 2 mps 753 mmHg 75%
10:00 +30°C° 0 mm 2 mps 753 mmHg 67%
11:00 +32°C° 0 mm 2 mps 752 mmHg 58%
12:00 +34°C° 0 mm 2 mps 752 mmHg 49%
13:00 +35°C° 0 mm 1 mps 751 mmHg 40%
14:00 +35°C° 0 mm 1 mps 750 mmHg 38%
15:00 +36°C° 0 mm 1 mps 749 mmHg 37%
16:00 +36°C° 0 mm 1 mps 749 mmHg 35%
17:00 +34°C° 0 mm 1 mps 749 mmHg 39%
18:00 +33°C° 0 mm 1 mps 749 mmHg 43%
19:00 +31°C° 0 mm 1 mps 750 mmHg 46%
20:00 +30°C° 0 mm 1 mps 750 mmHg 49%
21:00 +29°C° 0 mm 2 mps 751 mmHg 52%
22:00 +29°C° 0 mm 2 mps 751 mmHg 55%
23:00 +28°C° 0 mm 2 mps 751 mmHg 65%
Show more